• en France
  • Liste des pays
  • À 7 jours
  • Température de l'eau
  • Carte satellitaire
  • Carte météo
  • Widgets météo
  • user-avatar
    Se connecter

    Météo par heure à Krivino

    Ce jour, 22 Septembre, Samedi

    Heure Température Précipitation Vent Pression Humidité
    00:00 +18°C° 0 mm 4 m/s 749 mmHg 75%
    01:00 +18°C° 0 mm 4 m/s 748 mmHg 73%
    02:00 +17°C° 0 mm 5 m/s 747 mmHg 71%
    03:00 +17°C° 0 mm 5 m/s 747 mmHg 70%
    04:00 +17°C° 0 mm 5 m/s 746 mmHg 69%
    05:00 +17°C° 0 mm 5 m/s 746 mmHg 68%
    06:00 +17°C° 0 mm 5 m/s 746 mmHg 68%
    07:00 +19°C° 0 mm 5 m/s 745 mmHg 67%
    08:00 +19°C° 0 mm 5 m/s 745 mmHg 67%
    09:00 +19°C° 0.1 mm 6 m/s 745 mmHg 67%
    10:00 +20°C° 0.1 mm 6 m/s 745 mmHg 67%
    11:00 +20°C° 0.1 mm 6 m/s 745 mmHg 67%
    12:00 +17°C° 0.7 mm 5 m/s 745 mmHg 75%
    13:00 +14°C° 0.7 mm 4 m/s 746 mmHg 82%
    14:00 +12°C° 0.7 mm 4 m/s 746 mmHg 90%
    15:00 +12°C° 0.6 mm 3 m/s 746 mmHg 91%
    16:00 +12°C° 0.6 mm 3 m/s 747 mmHg 91%
    17:00 +11°C° 0.6 mm 3 m/s 747 mmHg 92%
    18:00 +11°C° 0.4 mm 3 m/s 747 mmHg 92%
    19:00 +11°C° 0.4 mm 3 m/s 747 mmHg 91%
    20:00 +11°C° 0.4 mm 3 m/s 747 mmHg 90%
    21:00 +11°C° 0.2 mm 3 m/s 747 mmHg 91%
    22:00 +10°C° 0.2 mm 3 m/s 747 mmHg 91%
    23:00 +10°C° 0.2 mm 3 m/s 747 mmHg 91%

    Demain, 23 Septembre, Dimanche

    Heure Température Précipitation Vent Pression Humidité
    00:00 +10°C° 0 mm 3 m/s 747 mmHg 92%
    01:00 +9°C° 0 mm 3 m/s 747 mmHg 93%
    02:00 +9°C° 0 mm 3 m/s 747 mmHg 94%
    03:00 +8°C° 0 mm 3 m/s 747 mmHg 95%
    04:00 +8°C° 0 mm 3 m/s 746 mmHg 95%
    05:00 +8°C° 0 mm 3 m/s 746 mmHg 96%
    06:00 +7°C° 0 mm 4 m/s 746 mmHg 93%
    07:00 +8°C° 0 mm 4 m/s 746 mmHg 90%
    08:00 +10°C° 0 mm 4 m/s 746 mmHg 88%
    09:00 +10°C° 0 mm 4 m/s 745 mmHg 84%
    10:00 +10°C° 0 mm 5 m/s 745 mmHg 81%
    11:00 +10°C° 0 mm 5 m/s 745 mmHg 77%
    12:00 +12°C° 0.1 mm 5 m/s 745 mmHg 73%
    13:00 +12°C° 0.1 mm 5 m/s 745 mmHg 69%
    14:00 +13°C° 0.1 mm 5 m/s 745 mmHg 65%
    15:00 +13°C° 0.1 mm 5 m/s 745 mmHg 68%
    16:00 +12°C° 0.1 mm 4 m/s 745 mmHg 71%
    17:00 +12°C° 0.1 mm 4 m/s 745 mmHg 74%
    18:00 +11°C° 0.3 mm 4 m/s 745 mmHg 79%
    19:00 +10°C° 0.3 mm 3 m/s 745 mmHg 84%
    20:00 +9°C° 0.3 mm 3 m/s 745 mmHg 89%
    21:00 +9°C° 0.1 mm 3 m/s 745 mmHg 90%
    22:00 +8°C° 0.1 mm 3 m/s 745 mmHg 91%
    23:00 +7°C° 0.1 mm 4 m/s 745 mmHg 92%

    Après-demain, 24 Septembre, Lundi

    Heure Température Précipitation Vent Pression Humidité
    00:00 +8°C° 0 mm 3 m/s 745 mmHg 93%
    01:00 +7°C° 0 mm 3 m/s 744 mmHg 95%
    02:00 +7°C° 0 mm 3 m/s 744 mmHg 96%
    03:00 +7°C° 0 mm 3 m/s 744 mmHg 96%
    04:00 +6°C° 0 mm 2 m/s 744 mmHg 97%
    05:00 +6°C° 0 mm 2 m/s 744 mmHg 97%
    06:00 +7°C° 0 mm 2 m/s 744 mmHg 95%
    07:00 +8°C° 0 mm 1 m/s 744 mmHg 93%
    08:00 +9°C° 0 mm 1 m/s 744 mmHg 92%
    09:00 +10°C° 0.1 mm 1 m/s 743 mmHg 89%
    10:00 +11°C° 0.1 mm 1 m/s 743 mmHg 87%
    11:00 +11°C° 0.1 mm 1 m/s 743 mmHg 85%
    12:00 +11°C° 0.5 mm 1 m/s 743 mmHg 85%
    13:00 +10°C° 0.5 mm 2 m/s 742 mmHg 86%
    14:00 +10°C° 0.5 mm 3 m/s 742 mmHg 86%
    15:00 +10°C° 0.2 mm 3 m/s 742 mmHg 87%
    16:00 +9°C° 0.2 mm 3 m/s 742 mmHg 88%
    17:00 +9°C° 0.2 mm 3 m/s 742 mmHg 89%
    18:00 +8°C° 0.1 mm 4 m/s 742 mmHg 89%
    19:00 +7°C° 0.1 mm 4 m/s 743 mmHg 89%
    20:00 +7°C° 0.1 mm 5 m/s 743 mmHg 88%
    21:00 +6°C° 0.1 mm 5 m/s 743 mmHg 87%
    22:00 +6°C° 0.1 mm 5 m/s 744 mmHg 86%
    23:00 +5°C° 0.1 mm 5 m/s 744 mmHg 85%

    25 Septembre, Mardi

    Heure Température Précipitation Vent Pression Humidité
    00:00 +5°C° 0 mm 5 m/s 744 mmHg 85%
    01:00 +5°C° 0 mm 5 m/s 745 mmHg 85%
    02:00 +5°C° 0 mm 5 m/s 745 mmHg 84%
    03:00 +3°C° 0 mm 5 m/s 746 mmHg 84%
    04:00 +3°C° 0 mm 5 m/s 746 mmHg 85%
    05:00 +3°C° 0 mm 5 m/s 747 mmHg 85%
    06:00 +5°C° 0 mm 5 m/s 747 mmHg 82%
    07:00 +5°C° 0 mm 5 m/s 748 mmHg 79%
    08:00 +5°C° 0 mm 6 m/s 749 mmHg 76%
    09:00 +5°C° 0.1 mm 6 m/s 749 mmHg 71%
    10:00 +7°C° 0.1 mm 6 m/s 750 mmHg 67%
    11:00 +8°C° 0.1 mm 7 m/s 750 mmHg 63%
    12:00 +8°C° 0.1 mm 7 m/s 751 mmHg 59%
    13:00 +8°C° 0.1 mm 7 m/s 751 mmHg 55%
    14:00 +9°C° 0.1 mm 7 m/s 752 mmHg 51%
    15:00 +8°C° 0 mm 6 m/s 752 mmHg 52%
    16:00 +7°C° 0 mm 5 m/s 753 mmHg 53%
    17:00 +7°C° 0 mm 4 m/s 753 mmHg 54%
    18:00 +6°C° 0 mm 4 m/s 754 mmHg 57%
    19:00 +5°C° 0 mm 3 m/s 754 mmHg 61%
    20:00 +4°C° 0 mm 3 m/s 755 mmHg 64%
    21:00 +4°C° 0 mm 3 m/s 755 mmHg 66%
    22:00 +4°C° 0 mm 3 m/s 755 mmHg 69%
    23:00 +5°C° 0 mm 4 m/s 755 mmHg 71%

    26 Septembre, Mercredi

    Heure Température Précipitation Vent Pression Humidité
    00:00 +5°C° 0.1 mm 4 m/s 754 mmHg 74%
    01:00 +5°C° 0.1 mm 4 m/s 754 mmHg 76%
    02:00 +5°C° 0.1 mm 4 m/s 754 mmHg 79%
    03:00 +5°C° 0.1 mm 4 m/s 753 mmHg 82%
    04:00 +5°C° 0.1 mm 4 m/s 753 mmHg 85%
    05:00 +5°C° 0.1 mm 4 m/s 752 mmHg 88%
    06:00 +6°C° 0.8 mm 4 m/s 752 mmHg 89%
    07:00 +6°C° 0.8 mm 5 m/s 752 mmHg 91%
    08:00 +7°C° 0.8 mm 5 m/s 751 mmHg 92%
    09:00 +8°C° 1 mm 5 m/s 751 mmHg 91%
    10:00 +8°C° 1 mm 5 m/s 750 mmHg 89%
    11:00 +9°C° 1 mm 5 m/s 750 mmHg 88%
    12:00 +9°C° 0.5 mm 5 m/s 750 mmHg 87%
    13:00 +9°C° 0.5 mm 5 m/s 749 mmHg 87%
    14:00 +9°C° 0.5 mm 5 m/s 749 mmHg 86%
    15:00 +9°C° 0.5 mm 5 m/s 748 mmHg 88%
    16:00 +9°C° 0.5 mm 5 m/s 748 mmHg 89%
    17:00 +8°C° 0.5 mm 5 m/s 747 mmHg 91%
    18:00 +8°C° 0.8 mm 5 m/s 746 mmHg 91%
    19:00 +8°C° 0.8 mm 6 m/s 745 mmHg 91%
    20:00 +9°C° 0.8 mm 6 m/s 744 mmHg 91%
    21:00 +9°C° 0.8 mm 6 m/s 744 mmHg 91%
    22:00 +9°C° 0.8 mm 6 m/s 743 mmHg 91%
    23:00 +10°C° 0.8 mm 7 m/s 742 mmHg 91%

    27 Septembre, Jeudi

    Heure Température Précipitation Vent Pression Humidité
    00:00 +10°C° 0.3 mm 6 m/s 742 mmHg 91%
    01:00 +11°C° 0.3 mm 6 m/s 741 mmHg 91%
    02:00 +11°C° 0.3 mm 6 m/s 741 mmHg 91%
    03:00 +12°C° 0.3 mm 5 m/s 741 mmHg 91%
    04:00 +12°C° 0.3 mm 5 m/s 741 mmHg 91%
    05:00 +10°C° 0.3 mm 5 m/s 741 mmHg 90%
    06:00 +11°C° 0.1 mm 4 m/s 741 mmHg 90%
    07:00 +11°C° 0.1 mm 4 m/s 741 mmHg 89%
    08:00 +10°C° 0.1 mm 3 m/s 742 mmHg 89%
    09:00 +11°C° 0.5 mm 3 m/s 741 mmHg 88%
    10:00 +11°C° 0.5 mm 4 m/s 741 mmHg 87%
    11:00 +11°C° 0.5 mm 4 m/s 741 mmHg 86%
    12:00 +11°C° 0.8 mm 4 m/s 740 mmHg 86%
    13:00 +11°C° 0.8 mm 4 m/s 740 mmHg 86%
    14:00 +10°C° 0.8 mm 5 m/s 739 mmHg 86%
    15:00 +10°C° 0.2 mm 5 m/s 739 mmHg 86%
    16:00 +11°C° 0.2 mm 4 m/s 739 mmHg 87%
    17:00 +11°C° 0.2 mm 4 m/s 739 mmHg 87%
    18:00 +10°C° 0.5 mm 4 m/s 739 mmHg 89%
    19:00 +10°C° 0.5 mm 4 m/s 738 mmHg 90%
    20:00 +8°C° 0.5 mm 4 m/s 738 mmHg 92%
    21:00 +8°C° 0.9 mm 4 m/s 738 mmHg 92%
    22:00 +8°C° 0.9 mm 3 m/s 738 mmHg 92%
    23:00 +8°C° 0.9 mm 3 m/s 738 mmHg 92%
    Voir plus